Showing default

COSMOS 2271, 23002

Orbit data source: Space-Track

COSMOS 2271, 23002 is a payload satellite owned by VKS (CIS) in LEO that was launched on Sat, 12 Feb 1994 UTC via a TSIKLON-3 launch vehicle from the Plesetsk Missile And Space Complex (PKMTR). Payload-class satellites include a variety of spacecraft equipped with specific instruments for various scientific and technological missions. These include communications satellites like Starlink; space stations such as the ISS; scientific satellites like the Hubble; Earth observation satellites from companies like Planet Labs, Umbra, and HawkEye 360; GPS; miniature CubeSats for education and research; and military/defense satellites.

Loading next visibility...
Identifier
23002, 1994-011D
Orbit
LEO
Country
Flag of CISCIS
Related business
Manufacturer
NPO PM
Mission
Defense Communications
Bus & Motor
STRELA-3, Unknown motor
Mass
225 kg wet, 225 kg dry
Launch date (UTC)
1994-02-12 (32 years ago)
Launch vehicle
TSIKLON-3
Launch site
Plesetsk Missile And Space Complex (PKMTR)
Object type
Payload
Rocket body
Debris
Shape & HBR
Cyl, 0.8 m
Radar Cross Section
1.257 m², Medium (>0.1 m² and < 1m²)

Expand to show TLE details & history
Last TLE update: 10 hours ago

TLE from 10 hours ago
0 COSMOS 2271
1 23002U 94011D   25352.63108095  .00000031  00000-0  11148-3 0  9993
2 23002  82.5660  52.9235 0006170 235.2179 124.8332 12.63517045468684
Epoch: 2025-12-18T15:08Z
TLE epoch observation values (Epoch: 2025-12-18T15:08:45.394Z)
Latitude
-0.00005°
Longitude
98.25053°
Altitude
1,413.939 km
Speed
7.152 km/s
True Right ascension
03h 31m 41s
True Declination
0° 00' 00"
Sunlit
Object was in full shadow at epoch
Visualization orbit readout
Latitude
Unknown
Longitude
Unknown
Altitude
Unknown
Speed
Unknown
Apparent Right ascension
Unknown
Apparent Declination
Unknown
Sunlit
N/A
Visualization observer readout
Local Sidereal Time
23:52:44
Azimuth
Unknown
Elevation
Unknown
Doppler factor
Unknown
Orbital elements
Apogee altitude
1,410.583 km
Perigee altitude
1,400.978 km
Semi-major axis
7,783.918 km
Eccentricity
0.00062
Inclination
82.566°
RAAN
52.9235°
Arg. of periapsis
235.2179°
True anomaly
124.89121°
Mean anomaly
124.8332°
Eccentric anomaly
124.86221°
Mean motion
3.16043 °/min
Orbital period
113.91 mins
BSTAR
0.00011148
Loading maneuver chart data...
Computing Atmospheric mass density...
Loading historical data...
Loading historical data...
Loading historical data...
Loading historical data...
Loading historical data...
Loading historical data...
Loading historical data...

Documentation

Showing up to 5 results
|